logo tempoitalia

Diretta Meteo Rovaniemi, Finlandialunedì 31 agosto ore 08:20

Mappa
Sereno 14 °C Coperto 24 Ore: T.min 12 T.max 15
Ponente Sud Km/h 11.1 Punto di rugiada: 13 °C Umidità: 93% Visibilità: 10 Km
Il sole sorge alle: 05:46 Il sole tramonta alle: 20:47
31 Agosto 2026 08:20 tempo osservato: Coperto Coperto 14 93 1004 vento: Nord S 11.1
31 Agosto 2026 07:50 tempo osservato: Coperto Coperto 14 93 1004 vento: Nord S 16.7
31 Agosto 2026 07:20 tempo osservato: Coperto Coperto 14 93 1004 vento: Nord S 11.1
31 Agosto 2026 06:50 tempo osservato: Molto Nuvoloso Molto Nuvoloso 14 93 1004 vento: Nord S 13
31 Agosto 2026 06:20 tempo osservato: Molto Nuvoloso Molto Nuvoloso 14 93 1004 vento: Nord S/SO 14.8
31 Agosto 2026 05:50 tempo osservato: Coperto Coperto 14 100 1004 vento: Nord S 11.1
31 Agosto 2026 05:20 tempo osservato: Coperto Coperto 14 100 1004 vento: Nord S 11.1
31 Agosto 2026 04:50 tempo osservato: Coperto Coperto 14 100 1004 vento: Nord S 11.1
31 Agosto 2026 04:20 tempo osservato: Coperto Coperto 14 100 1004 vento: Nord S 18.5
31 Agosto 2026 03:50 tempo osservato: Coperto Coperto 14 100 1004 vento: Nord S 13
31 Agosto 2026 03:20 tempo osservato: Pioggia Pioggia 14 100 1004 vento: Nord S 22.2
31 Agosto 2026 02:50 tempo osservato: Coperto Coperto 14 100 1004 vento: Nord S 20.3
31 Agosto 2026 02:20 tempo osservato: Pioggia Pioggia 14 100 1004 vento: Nord S 20.3
31 Agosto 2026 01:50 tempo osservato: Coperto Coperto 14 100 1004 vento: Nord S/SE 25.9
31 Agosto 2026 01:20 tempo osservato: Coperto Coperto 14 100 1004 vento: Nord S/SE 22.2
31 Agosto 2026 00:50 tempo osservato: Coperto Coperto 14 100 1004 vento: Nord S 24
31 Agosto 2026 00:20 tempo osservato: Coperto Coperto 14 100 1004 vento: Nord S/SE 24
30 Agosto 2026 23:50 tempo osservato: Coperto Coperto 14 100 1004 vento: Nord S/SE 18.5
30 Agosto 2026 23:20 tempo osservato: Coperto Coperto 14 100 1004 vento: Nord S/SE 16.7
30 Agosto 2026 22:50 tempo osservato: Coperto Coperto 14 100 1004 vento: Nord S/SE 18.5
30 Agosto 2026 22:20 tempo osservato: Coperto Coperto 14 100 1004 vento: Nord S/SE 20.3
30 Agosto 2026 21:50 tempo osservato: Coperto Coperto 14 100 1004 vento: Nord S/SE 22.2
30 Agosto 2026 21:20 tempo osservato: Coperto Coperto 14 100 1004 vento: Nord S/SE 22.2
30 Agosto 2026 20:50 tempo osservato: Coperto Coperto 14 100 1004 vento: Nord S/SE 22.2
30 Agosto 2026 20:20 tempo osservato: Coperto Coperto 14 100 1004 vento: Nord S/SE 22.2
30 Agosto 2026 19:50 tempo osservato: Coperto Coperto 14 100 1004 vento: Nord S 18.5
30 Agosto 2026 19:20 tempo osservato: Pioggia Pioggia 14 100 1004 vento: Nord S/SE 20.3
30 Agosto 2026 18:50 tempo osservato: Coperto Coperto 14 100 1004 vento: Nord S/SE 22.2
30 Agosto 2026 18:20 tempo osservato: Coperto Coperto 14 100 1004 vento: Nord S/SE 18.5
30 Agosto 2026 17:50 tempo osservato: Coperto Coperto 14 100 1004 vento: Nord S/SE 16.7
30 Agosto 2026 17:20 tempo osservato: Pioggia Pioggia 14 100 1004 vento: Nord S/SE 18.5
30 Agosto 2026 16:50 tempo osservato: Pioviggine Pioviggine 14 93 1004 vento: Nord S/SE 14.8
30 Agosto 2026 16:20 tempo osservato: Pioggia Pioggia 14 93 1004 vento: Nord SE 18.5
30 Agosto 2026 15:50 tempo osservato: Pioggia Pioggia 14 93 1004 vento: Nord SE 16.7
30 Agosto 2026 15:20 tempo osservato: Pioggia Pioggia 14 93 1005 vento: Nord SE 14.8
30 Agosto 2026 14:50 tempo osservato: Pioggia Pioggia 14 93 1005 vento: Nord SE 18.5
30 Agosto 2026 14:20 tempo osservato: Pioggia Pioggia 14 87 1005 vento: Nord E/SE 16.7
30 Agosto 2026 13:50 tempo osservato: Pioggia Pioggia 14 87 1005 vento: Nord E/SE 16.7
30 Agosto 2026 13:20 tempo osservato: Pioggia Pioggia 15 82 1006 vento: Nord E/SE 16.7
30 Agosto 2026 12:50 tempo osservato: Nuvoloso Nuvoloso 15 76 1006 vento: Nord SE 16.7
30 Agosto 2026 12:20 tempo osservato: Poco Nuvoloso Poco Nuvoloso 15 76 1006 vento: Nord SE 16.7
30 Agosto 2026 11:50 tempo osservato: Nuvoloso Nuvoloso 15 76 1006 vento: Nord E/SE 20.3
30 Agosto 2026 11:20 tempo osservato: Sereno Sereno 15 76 1007 vento: Nord E/SE 22.2
30 Agosto 2026 10:50 tempo osservato: Sereno Sereno 14 82 1007 vento: Nord E/SE 18.5
30 Agosto 2026 10:20 tempo osservato: Sereno Sereno 14 82 1007 vento: Nord E/SE 22.2
30 Agosto 2026 09:50 tempo osservato: Sereno Sereno 13 87 1007 vento: Nord E/SE 20.3
30 Agosto 2026 09:20 tempo osservato: Sereno Sereno 13 87 1008 vento: Nord E/SE 18.5
30 Agosto 2026 08:50 tempo osservato: Poco Nuvoloso Poco Nuvoloso 12 93 1008 vento: Nord E/SE 20.3